Location: Siratepeler Tepesi
(39.1042°N, 32.0781°E)
Time: 04:50:38
(UTC+00:00)

Cosmos 1862 Rocket - Pass Details

Date: 11 April 2026
Orbit: 597 x 626 km, 82.5° (Epoch: 9 May)

Event Time Altitude Azimuth Distance (km) Brightness Sun altitude
Rises 16:51:13 0° 358° (N) 2,913 7.3 -5.8°
Reaches altitude 10° 16:53:31 10° 3° (N) 1,999 6.4 -6.2°
Maximum altitude 16:57:50 51° 80° (E) 784 3.8 -7.0°
Drops below altitude 10° 17:02:05 10° 156° (SSE) 1,969 5.8 -7.8°
Sets 17:04:20 0° 162° (SSE) 2,864 6.6 -8.2°
